User: anonymous   Login
Location: Piotrkow Trybunalski
(51.4000°N, 19.6830°E)
Time: 23:38:43
(UTC+01:00)
Language:

STRAND 1 - Orbit

View from above orbital plane
View from above orbital plane
View from above satellite
View from above satellite

Ground track
Ground track

The orbit data is extracted from the following two-line orbital elements,

1 39090U 13009E   24062.53010527  .00000488  00000-0  18278-3 0  9990
2 39090  98.3822 253.7473 0008388 204.7017 155.3768 14.35914265576939
Epoch (UTC): 02 March 2024 12:43:21
Eccentricity: 0.0008388
inclination: 98.3822°
perigee height: 766 km
apogee height: 778 km
right ascension of ascending node: 253.7473°
argument of perigee: 204.7017°
revolutions per day: 14.35914265
mean anomaly at epoch: 155.3768°
orbit number at epoch: 57693

The dashed part of the orbit path shows where the satellite is in the earth's shadow,  

DLR